Regional Weather Roundup
Issued by NWS

Home | Current Version | Previous Version | Graphics & Text | Print | Product List | Glossary Off
Versions: 1 2 3 4 5 6 7 8 9 10 11 12 13 14 15 16 17 18 19 20 21 22 23 24 25 26 27 28 29 30 31 32 33 34 35 36 37 38 39 40 41 42 43 44 45 46 47 48 49 50

000
ASUS43 KFSD 042302
RWRSD

WEATHER ROUNDUP FOR SOUTH DAKOTA
NATIONAL WEATHER SERVICE SIOUX FALLS SD
500 PM CST SUN DEC 04 2016

NOTE: "FAIR" INDICATES FEW OR NO CLOUDS BELOW 12,000 FEET WITH NO
SIGNIFICANT WEATHER AND/OR OBSTRUCTIONS TO VISIBILITY.


SDZ001>005-009-010-012>017-050000-
NORTHWEST AND NORTH CENTRAL SOUTH DAKOTA

CITY           SKY/WX    TMP DP  RH WIND       PRES   REMARKS
BUFFALO          N/A     38  24  57 S8        29.58F
FAITH            N/A     34  26  72 S10       29.69F WCI  26
MOBRIDGE       CLEAR     31  24  75 S7        29.70S WCI  24
$$

SDZ012>016-024>037-041>051-057-063-072>074-050000-
SOUTHWEST AND SOUTH CENTRAL SOUTH DAKOTA

CITY           SKY/WX    TMP DP  RH WIND       PRES   REMARKS
RAPID CTY ARPT PTCLDY    38  13  35 CALM      29.67F
PIERRE         CLEAR     38  27  64 S7        29.74F
CUSTER         CLOUDY    33  14  45 VRB3      29.66F
ELLSWORTH AFB  PTCLDY    42  16  34 CALM      29.66F
PHILIP         CLEAR     42  22  44 S5        29.73F
PINE RIDGE     CLEAR     37  24  59 CALM      29.72F
SPEARFISH      FAIR      36  16  44 S3        29.66F
WINNER         FAIR      43  24  47 SW3       29.78F
$$

SDZ004>011-016>023-039-040-050000-
NORTHEAST SOUTH DAKOTA

CITY           SKY/WX    TMP DP  RH WIND       PRES   REMARKS
ABERDEEN       CLEAR     32  26  78 S6        29.75S WCI  26
WATERTOWN      CLEAR     32  28  85 SW12      29.75S WCI  23
SISSETON         N/A     34  29  82 CALM      29.72S
$$

SDZ017-020-022-023-036>040-048>070-050000-
SOUTHEAST SOUTH DAKOTA

CITY           SKY/WX    TMP DP  RH WIND       PRES   REMARKS
SIOUX FALLS    CLEAR     40  33  76 W3        29.81R
HURON          CLEAR     36  30  79 SW5       29.78F
CHAMBERLAIN    CLEAR     40  30  67 CALM      29.78F
MITCHELL       CLEAR     40  30  67 CALM      29.81S
YANKTON        CLEAR     43  27  52 W7        29.82F
$$

ABBREVIATIONS USED IN REMARKS
   TC - TEMPERATURE IN CELSIUS
  WCI - WIND CHILL INDEX
   HX - HEAT INDEX
  VSB - VISIBILITY




USA.gov is the U.S. government's official web portal to all federal, state and local government web resources and services.